VTSSWMKL

Guest
Details From VTSS - Songkhla Hat Yai Intl
To WMKL - Langkawi Intl
Flight Number -
Tags generated
Created
Modified
Stats Distance 54 nm / 99 km
Max Altitude 400 ft / 122 m
Waypoints 3
Social Downloads 2
Likes 0
Share VATSIM

Download

Looking for another format? Having issues loading an existing format? Contact us
Advertisement - Login to hide

Notes

Basic altitude profile: - Ascent Rate: 2500ft/min - Ascent Speed: 250kts - Cruise Altitude: 35000ft - Cruise Speed: 420kts - Descent Rate: 1500ft/min - Descent Speed: 250kts Options: - Use NATs: yes - Use PACOTS: yes - Use low airways: yes - Use high airways: no

Route

VTSS VPL WMKL

ID Type Via Altitude Latitude Longitude Leg Dist Tot Dist Heading (true) Name
O VTSS APT - 0 ft / 0 m 6.93251˚ 100.39298˚ - 0 nm - Songkhla Hat Yai Intl
VPL VOR - 400 ft / 122 m 6.35542˚ 99.74739˚ 51 nm 51 nm 228° / 228° LANGKAWI VOR-DME
O WMKL APT - 0 ft / 0 m 6.32973˚ 99.72866˚ 1 nm 53 nm 216° / 216° Langkawi Intl

Altitude Profile

Advertisement - Login to hide

VTSS

Details ICAO VTSS (HDY)
Name Songkhla Hat Yai Intl
Region Thailand
Timezone Asia/Bangkok (UTC+7.0)
Stats Elevation 90 ft / 27 m (AMSL)
Location 6.932513° 100.392977°
Runways 1
Magnetic Variation 0.258° W

METAR

VTSS 162230Z 05004KT 9999 -RA FEW018CB SCT020 BKN100 24/22 Q1011 NOSIG

Decode

TAF

TAF VTSS 161700Z 1618/1718 31003KT 9999 SCT020 BECMG 1701/1703 06010KT TEMPO 1703/1709 VRB15KT 3000 TSRA FEW016CB SCT018 BKN100

Decode

Departure Runways

ID Width Length Bearing (true) Bearing (mag) Surface Threshold Offset Overrun Length
08 148 ft / 45 m 9,984 ft / 3,043 m 82.94° 83.20° Asphalt 0 ft / 0 m 197 ft / 60 m
26 148 ft / 45 m 9,984 ft / 3,043 m 262.95° 263.21° Asphalt 0 ft / 0 m 197 ft / 60 m

WMKL

Details ICAO WMKL (LGK)
Name Langkawi Intl
Region Malaysia (Peninsular Malaysia)
Timezone Asia/Kuala_Lumpur (UTC+8.0)
Stats Elevation 29 ft / 9 m (AMSL)
Location 6.329726° 99.728665°
Runways 1
Magnetic Variation 0.282° W

METAR

WMKL 162200Z VRB02KT 9999 FEW017CB SCT140 BKN270 25/22 Q1011

Decode

TAF

TAF WMKL 161700Z 1618/1718 06005KT 9999 FEW017CB SCT140 BKN270 PROB30 TEMPO 1712/1716 3000 TSRA FEW016CB SCT020

Decode

Destination Runways

ID Width Length Bearing (true) Bearing (mag) Surface Threshold Offset Overrun Length
03 148 ft / 45 m 12,543 ft / 3,823 m 34.19° 34.47° Asphalt 2,000 ft / 610 m 193 ft / 59 m
21 148 ft / 45 m 12,543 ft / 3,823 m 214.20° 214.48° Asphalt 0 ft / 0 m 175 ft / 53 m

Approach Navaids

Runway Type Ident Frequency Range Bearing (true) Bearing (mag) Slope Elevation
03 Localiser ILK 110.70 MHz 18 nm / 33 km 35.68° 35.96° - 29 ft / 9 m (AMSL)
03 Glidescope ILK 110.70 MHz 10 nm / 19 km 34.19° 34.48° 3.00° 29 ft / 9 m (AMSL)
03 DME ILK 110.70 MHz 18 nm / 33 km - - - 29 ft / 9 m (AMSL)

Popular Alternatives